Wind_Speed
74 75 76 76 73 75 77 79 80 79 77 74 72 71 70 70 69 67 65 65 65 64 63 62 61 61 60 59 59 57 55 55 56 55 55 53 52 50
67 68 68 69 69 71 74 75 77 78 78 76 74 72 72 72 72 71 71 70 69 67 66 65 64 65 64 64 63 62 61 61 61 60 58 57 56 54
58 59 59 58 61 65 67 68 70 73 76 77 76 75 74 74 74 74 73 72 71 70 69 68 67 68 68 69 69 68 68 67 66 64 63 62 60 59
46 49 51 51 53 58 63 64 62 63 67 71 74 75 75 74 74 74 74 73 72 72 71 71 70 69 70 70 71 70 70 69 68 67 66 66 64 62
38 46 51 53 54 53 54 56 55 56 60 63 66 68 69 70 70 71 72 73 72 71 70 69 69 69 69 68 69 70 70 70 69 69 67 66 65 63
39 42 48 52 55 55 53 51 49 49 51 55 57 60 61 62 63 65 67 68 68 67 66 66 66 67 67 69 70 71 71 69 68 67 67 66 65 63
38 39 41 45 48 50 50 50 49 49 50 53 56 57 57 58 59 60 61 61 62 63 63 64 64 65 67 68 69 68 67 66 66 66 65 65 65 63
38 41 42 41 42 44 46 48 48 48 50 52 55 58 59 59 59 59 57 57 58 60 62 64 65 64 64 64 63 63 64 65 66 65 64 64 63 63
39 41 42 43 43 44 46 47 48 47 48 50 53 57 59 61 60 60 59 57 57 57 59 59 61 62 61 60 60 61 62 63 64 64 63 63 63 64
41 41 42 41 41 43 45 47 48 49 49 49 50 53 56 58 58 57 54 53 53 53 53 53 54 54 55 56 56 56 57 58 60 62 62 62 62 61
43 43 43 41 41 42 45 46 48 49 49 49 50 51 52 52 51 51 51 50 49 50 51 51 52 53 53 54 54 54 55 56 58 60 60 60 60 61
41 44 46 44 43 44 45 47 49 50 50 50 50 49 49 49 49 50 49 48 47 47 48 50 51 52 53 54 55 56 55 55 56 58 59 60 60 60
39 41 45 47 47 47 47 48 50 52 52 52 51 50 49 49 50 49 48 47 46 45 46 48 50 52 53 53 54 54 53 53 53 54 56 57 56 55
40 39 41 45 48 49 49 49 51 53 54 54 53 52 50 50 50 49 48 47 47 47 48 50 51 51 51 52 53 53 52 51 51 50 48 47 47 48
44 42 41 42 44 46 47 48 49 51 52 53 53 52 51 51 50 50 49 49 49 49 50 51 52 52 51 50 51 52 51 49 47 45 43 43 42 42
47 47 45 44 44 44 46 47 48 48 48 49 50 49 49 50 50 50 48 47 47 48 49 51 53 53 51 49 48 48 47 46 43 42 42 41 41 41
50 50 49 48 46 46 47 48 49 48 48 48 48 48 48 48 49 49 47 46 44 45 45 47 48 49 47 45 43 43 43 42 41 40 40 40 40 40
52 52 52 51 51 50 49 49 50 50 50 50 49 49 49 49 49 48 47 46 43 41 42 43 43 44 44 43 42 42 42 42 40 38 36 35 35 34
51 53 53 54 54 54 54 53 52 52 52 52 51 50 50 50 49 48 46 44 43 41 40 41 41 41 41 42 43 43 44 43 41 38 36 35 35 34
43 50 54 56 57 57 57 57 56 55 54 53 52 51 50 50 50 48 46 44 43 42 41 41 42 42 42 43 45 46 45 44 42 40 38 37 36 34
30 39 48 54 58 59 59 59 59 59 57 56 55 53 52 51 50 49 47 45 43 42 42 42 42 42 43 43 45 46 45 42 40 38 36 35 34 32
21 27 35 44 53 58 61 61 61 61 61 60 59 58 56 55 53 51 49 47 45 44 42 42 42 42 42 42 42 42 41 39 37 36 35 34 32 31
17 20 24 31 40 50 57 62 64 64 64 64 64 63 62 60 58 56 54 51 49 47 45 44 42 42 41 40 39 39 39 38 37 37 36 35 33 32
Wind_Direction
243 241 242 242 241 242 244 245 246 245 244 243 242 241 240 239 238 236 234 235 236 237 238 240 242 245 246 246 247 247 247 246 247 249 251 252 254 256
243 238 236 237 237 238 239 241 243 244 243 242 240 240 239 238 237 236 235 235 235 236 237 238 239 241 242 243 245 246 248 250 251 253 253 255 257 258
240 233 230 231 233 235 236 238 239 241 242 241 240 239 238 238 237 237 236 236 236 236 237 239 240 241 242 244 246 247 249 251 253 254 255 256 258 258
232 222 219 223 228 231 233 234 235 236 237 238 238 237 237 236 236 236 236 236 236 237 239 240 242 243 244 246 248 249 250 252 253 255 256 257 257 257
213 215 217 223 225 226 227 229 231 232 233 234 234 235 235 235 235 235 236 236 237 238 239 240 242 244 245 246 247 249 250 251 252 253 254 255 256 255
208 214 219 226 230 230 232 234 235 235 235 234 234 234 234 234 234 235 236 236 237 237 239 240 241 243 244 245 247 249 250 251 251 252 252 252 252 252
218 218 218 223 227 230 233 235 236 237 237 237 235 234 235 235 236 235 235 235 236 237 238 240 242 244 245 246 248 249 250 250 250 251 251 250 250 251
229 229 225 222 223 224 226 228 230 233 236 236 235 234 233 234 235 236 236 236 238 238 239 241 244 246 248 249 249 249 250 251 251 251 251 251 250 250
233 235 236 235 235 232 230 230 231 233 236 238 238 237 236 235 235 236 238 240 241 242 243 244 244 245 246 246 246 247 247 248 249 249 249 249 250 250
235 237 238 237 236 237 236 235 236 238 239 240 241 240 238 237 238 239 240 240 240 239 239 241 241 241 242 243 244 245 246 247 247 247 248 248 248 249
237 237 238 236 234 236 237 237 237 239 240 241 242 240 235 232 233 234 236 237 237 236 235 237 240 243 245 247 247 246 247 248 249 249 249 248 248 248
239 238 236 235 233 233 234 235 235 235 236 237 238 237 232 227 226 229 233 235 236 237 237 238 241 245 247 248 248 249 247 247 249 249 249 250 250 249
239 239 236 234 233 233 232 232 231 231 231 231 232 232 229 227 227 229 233 235 237 239 241 242 243 245 247 248 248 248 247 248 249 248 248 248 247 246
235 236 235 233 233 233 233 231 228 227 227 226 228 229 229 228 228 231 234 237 240 242 243 243 242 243 246 247 248 248 248 248 245 242 241 241 241 240
233 233 233 231 230 229 229 226 224 223 223 224 227 229 230 230 231 233 237 241 244 245 245 243 242 243 246 248 249 247 246 244 239 235 234 235 235 235
235 232 231 230 228 227 226 224 223 223 223 225 227 229 230 231 232 234 238 242 244 245 245 244 242 242 244 248 248 244 239 236 233 230 231 232 233 234
237 234 231 230 230 228 227 226 226 227 226 227 228 229 229 230 233 235 237 240 243 244 244 243 239 239 241 243 242 238 233 230 228 227 228 230 231 232
238 236 233 231 230 229 229 228 228 228 228 228 228 228 229 231 233 235 237 240 241 242 241 239 235 235 236 237 236 233 229 226 223 222 222 224 227 228
238 237 235 233 231 230 229 229 228 228 228 228 228 228 229 231 234 236 238 240 241 241 240 236 232 232 234 234 232 230 227 224 222 221 221 223 227 229
241 238 236 235 234 232 231 230 230 229 229 229 229 229 229 230 233 235 236 238 240 241 239 236 233 233 234 234 233 233 230 229 228 227 226 227 230 234
249 243 239 236 235 234 233 232 231 231 230 230 230 230 230 231 232 233 234 235 237 238 237 234 233 233 234 234 233 231 228 227 227 228 228 229 230 234
261 251 244 240 237 235 234 234 233 233 232 232 232 232 232 232 232 233 234 234 235 235 234 232 229 229 230 229 229 228 226 225 226 228 229 230 232 236
276 264 253 245 241 238 236 235 234 234 233 233 233 233 234 234 234 235 235 235 234 234 234 232 229 227 227 227 228 229 229 227 227 229 232 234 237 241
Height
5501 5510 5519 5528 5537 5544 5552 5559 5568 5577 5587 5596 5604 5612 5619 5625 5631 5637 5644 5651 5658 5665 5671 5677 5682 5688 5693 5697 5702 5708 5713 5718 5723 5728 5733 5737 5741 5744
5478 5488 5498 5508 5516 5524 5531 5538 5546 5555 5565 5574 5584 5593 5601 5608 5614 5620 5627 5635 5642 5649 5656 5662 5668 5673 5678 5683 5688 5693 5698 5703 5708 5713 5718 5722 5727 5731
5458 5469 5481 5491 5499 5505 5512 5518 5526 5534 5544 5553 5563 5573 5581 5589 5596 5603 5611 5619 5626 5633 5640 5646 5652 5657 5662 5667 5672 5677 5682 5687 5692 5698 5702 5707 5712 5716
5442 5454 5466 5476 5482 5488 5494 5500 5508 5515 5525 5533 5542 5552 5561 5569 5577 5585 5594 5602 5609 5616 5623 5629 5635 5640 5645 5651 5656 5661 5666 5671 5676 5682 5687 5692 5695 5699
5431 5442 5451 5459 5465 5470 5477 5484 5493 5501 5509 5517 5524 5532 5541 5550 5559 5567 5576 5584 5591 5599 5605 5612 5617 5623 5629 5634 5639 5644 5649 5655 5660 5664 5669 5674 5679 5683
5421 5429 5437 5444 5450 5457 5464 5472 5481 5490 5498 5504 5511 5518 5526 5534 5542 5550 5558 5567 5574 5581 5589 5595 5600 5606 5612 5618 5623 5627 5632 5636 5641 5647 5652 5657 5662 5667
5411 5417 5424 5431 5437 5444 5451 5459 5468 5476 5484 5492 5498 5505 5512 5520 5528 5535 5543 5550 5557 5564 5572 5580 5585 5591 5594 5600 5605 5610 5615 5620 5625 5630 5635 5640 5645 5650
5402 5406 5412 5418 5424 5431 5439 5447 5455 5463 5471 5478 5485 5492 5499 5506 5513 5520 5528 5536 5543 5552 5557 5562 5568 5573 5579 5584 5589 5594 5599 5604 5609 5613 5618 5624 5629 5634
5393 5397 5402 5408 5413 5420 5429 5437 5444 5451 5459 5466 5472 5477 5484 5493 5501 5508 5514 5521 5529 5535 5540 5546 5551 5557 5562 5568 5572 5577 5583 5587 5592 5596 5602 5607 5612 5617
5384 5388 5392 5398 5403 5410 5418 5425 5432 5439 5447 5453 5459 5464 5469 5477 5485 5493 5500 5507 5513 5519 5525 5531 5536 5541 5546 5551 5556 5562 5567 5571 5575 5580 5585 5590 5595 5600
5374 5378 5383 5388 5394 5400 5407 5413 5420 5426 5433 5440 5445 5450 5456 5464 5471 5479 5486 5492 5499 5505 5511 5517 5522 5526 5531 5535 5541 5548 5552 5556 5560 5565 5569 5574 5580 5585
5362 5366 5371 5377 5382 5387 5394 5400 5407 5414 5421 5427 5433 5438 5444 5451 5458 5465 5472 5479 5486 5492 5497 5503 5508 5512 5516 5521 5527 5532 5537 5541 5545 5550 5554 5559 5564 5569
5348 5352 5357 5363 5369 5375 5381 5387 5394 5401 5408 5415 5421 5427 5433 5439 5446 5453 5460 5466 5472 5478 5484 5489 5494 5498 5502 5507 5512 5516 5521 5525 5530 5535 5539 5544 5549 5554
5336 5340 5344 5350 5355 5362 5368 5374 5381 5388 5395 5402 5409 5415 5421 5428 5434 5441 5447 5453 5459 5465 5470 5475 5480 5484 5488 5493 5497 5502 5506 5511 5516 5521 5526 5530 5535 5541
5323 5328 5333 5338 5343 5349 5355 5362 5368 5375 5383 5390 5396 5403 5409 5416 5422 5429 5435 5441 5446 5451 5456 5460 5466 5470 5475 5479 5483 5487 5492 5497 5503 5509 5514 5519 5524 5529
5307 5313 5320 5325 5331 5337 5343 5350 5356 5363 5370 5377 5384 5390 5397 5404 5410 5417 5422 5428 5432 5437 5441 5446 5451 5457 5462 5466 5470 5474 5480 5485 5491 5498 5503 5509 5514 5519
5291 5298 5305 5311 5317 5324 5330 5337 5344 5351 5358 5365 5372 5378 5385 5391 5398 5404 5410 5415 5420 5424 5428 5432 5437 5443 5449 5454 5459 5464 5469 5475 5481 5487 5493 5498 5503 5509
5275 5282 5289 5296 5303 5309 5317 5324 5331 5339 5346 5353 5360 5366 5373 5379 5386 5392 5397 5403 5407 5412 5416 5420 5425 5431 5438 5444 5449 5454 5460 5465 5472 5478 5483 5489 5494 5500
5259 5266 5273 5280 5287 5295 5303 5310 5318 5325 5332 5340 5347 5353 5360 5367 5374 5379 5385 5390 5396 5400 5405 5410 5415 5421 5427 5433 5439 5444 5450 5457 5463 5469 5474 5480 5485 5490
5243 5249 5256 5264 5272 5280 5288 5296 5304 5311 5319 5326 5333 5340 5347 5354 5361 5368 5373 5378 5384 5389 5394 5400 5406 5411 5417 5423 5428 5434 5441 5447 5453 5459 5465 5471 5475 5480
5230 5234 5240 5247 5255 5263 5272 5280 5288 5296 5304 5312 5320 5327 5334 5341 5348 5355 5362 5367 5373 5378 5384 5390 5396 5401 5407 5412 5418 5424 5431 5437 5443 5449 5455 5461 5466 5470
5221 5223 5226 5231 5238 5246 5255 5263 5272 5280 5289 5297 5305 5313 5320 5328 5335 5343 5349 5356 5362 5368 5373 5379 5386 5392 5397 5403 5408 5414 5421 5428 5434 5439 5445 5451 5456 5460
5214 5215 5216 5219 5223 5230 5237 5246 5255 5264 5272 5280 5289 5297 5305 5313 5321 5329 5336 5343 5350 5356 5362 5369 5375 5382 5388 5394 5400 5405 5411 5418 5425 5431 5436 5441 5446 5450